This is the latest recevied weather packets stored in our database for station/object W1MWS-13. If no packets are shown the sender has not sent any weather packets the latest 10 day(s).
| Time | Temp. | Humidity | Pressure | Rain* | Wind** | Luminosity | Snow |
|---|---|---|---|---|---|---|---|
| 1777571004 | 10.56° C | 99% | 1007.2 hPa | 0.25 mm | - | - | - |
| 1777569204 | 10° C | 99% | 1007.4 hPa | 1.27 mm | - | - | - |
| 1777568012 | 10° C | 99% | 1007.4 hPa | 1.52 mm | - | - | - |
| 1777567702 | 10° C | 99% | 1007.4 hPa | 1.27 mm | - | - | - |
| 1777565311 | 10° C | 99% | 1007.5 hPa | 0.25 mm | - | - | - |
| 1777563213 | 10° C | 99% | 1007.5 hPa | 0.25 mm | - | - | - |
| 1777561097 | 9.44° C | 99% | 1007.9 hPa | 0.25 mm | - | - | - |
| 1777559896 | 9.44° C | 99% | 1007.9 hPa | 0.25 mm | - | - | - |
| 1777559336 | 9.44° C | 99% | 1008.1 hPa | 0.25 mm | - | - | - |
| 1777558696 | 9.44° C | 99% | 1008.2 hPa | 0.25 mm | - | - | - |
| 1777555096 | 8.89° C | 99% | 1008.5 hPa | 0 mm | - | - | - |
| 1777554198 | 8.89° C | 99% | 1008.4 hPa | 0 mm | - | - | - |
| 1777553908 | 8.89° C | 99% | 1008.4 hPa | 0 mm | - | - | - |
| 1777551799 | 8.89° C | 99% | 1008.6 hPa | 0 mm | - | - | - |
| 1777549701 | 7.78° C | 99% | 1008.7 hPa | 0 mm | - | - | - |
| 1777547003 | 7.78° C | 99% | 1008.3 hPa | 0 mm | - | - | - |
| 1777544298 | 7.22° C | 99% | 1008.8 hPa | 0.25 mm | - | - | - |
| 1777542816 | 7.22° C | 99% | 1008.8 hPa | 0.51 mm | - | - | - |
| 1777542505 | 7.22° C | 99% | 1008.8 hPa | 0.51 mm | - | - | - |
| 1777541016 | 7.22° C | 99% | 1008.8 hPa | 0.25 mm | - | - | - |
| 1777539505 | 7.22° C | 99% | 1008.8 hPa | 0 mm | - | - | - |
| 1777537697 | 7.22° C | 99% | 1009.4 hPa | 0.25 mm | - | - | - |
| 1777535007 | 7.22° C | 99% | 1009.8 hPa | 0 mm | - | - | - |
| 1777534098 | 7.22° C | 99% | 1010 hPa | 0 mm | - | - | - |
| 1777530227 | 7.22° C | 99% | 1010.4 hPa | 0 mm | - | - | - |
* Rain latest hour (hover to see other rain measurements)
** Current wind speed in m/s (hover to see current wind gust speed)